Location: Shepherdstown, WV
(39.4326°N, 77.8042°W)
Time: 05:51:30
(UTC-04:00)

Vanguard 3 - Pass Details

Date: 09 August 2021
Orbit: 510 x 3260 km, 33.3° (Epoch: 21 September)

Event Time Altitude Azimuth Distance (km) Brightness Sun altitude
Rises 19:09:15 0° 266° (W) 4,936 12.9 11.2°
Reaches altitude 10° 19:11:59 10° 264° (W) 4,246 12.6 10.7°
Maximum altitude 19:24:29 69° 184° (S) 2,790 10.0 8.3°
Drops below altitude 10° 19:43:38 10° 107° (ESE) 6,183 11.0 4.8°
Sets 19:48:36 0° 106° (ESE) 7,217 11.3 3.8°
